Location: *
(37.9500°N, 27.3666°E)
Time: 04:44:28
(UTC+00:00)

Okean O Rocket - Pass Details

Date: 24 October 2021
Orbit: 623 x 643 km, 98.2° (Epoch: 03 December)

Event Time Altitude Azimuth Distance (km) Brightness Sun altitude
Rises 15:54:54 0° 147° (SSE) 2,890 4.8 -7.4°
Reaches altitude 10° 15:57:11 10° 139° (SE) 1,989 3.9 -7.8°
Maximum altitude 16:01:10 37° 71° (ENE) 968 2.1 -8.6°
Drops below altitude 10° 16:05:12 10° 4° (N) 2,008 4.1 -9.4°
Sets 16:07:30 0° 357° (N) 2,922 5.0 -9.8°
